Time,TemperatureF,DewpointF,PressureIn,WindDirection,WindDirectionDegrees,WindSpeedMPH,WindSpeedGustMPH,Humidity,HourlyPrecipIn,Conditions,Clouds,dailyrainin,SoftwareType,DateUTC
2013-03-10 00:00:00,26.1,24.0,30.38,East,90,5.4,5.4,90,0.00,,,0.00,Rainwise IP-100,2013-03-10 05:00:00,
2013-03-10 00:05:00,26.2,24.0,30.38,ESE,112,4.0,14.7,90,0.00,,,0.00,Rainwise IP-100,2013-03-10 05:05:00,
2013-03-10 00:10:00,26.2,24.0,30.38,ESE,112,2.3,11.2,90,0.00,,,0.00,Rainwise IP-100,2013-03-10 05:10:00,
2013-03-10 00:15:00,26.1,24.0,30.38,ESE,112,4.4,10.5,90,0.00,,,0.00,Rainwise IP-100,2013-03-10 05:15:00,
2013-03-10 00:20:00,26.0,24.0,30.38,East,90,4.4,9.8,90,0.00,,,0.00,Rainwise IP-100,2013-03-10 05:20:00,
2013-03-10 00:25:00,26.0,24.0,30.38,ENE,67,3.0,7.7,90,0.00,,,0.00,Rainwise IP-100,2013-03-10 05:25:00,
2013-03-10 00:30:00,25.8,24.0,30.39,ESE,112,2.1,14.5,90,0.00,,,0.00,Rainwise IP-100,2013-03-10 05:30:00,
2013-03-10 00:35:00,25.7,24.0,30.39,East,90,1.6,10.3,91,0.00,,,0.00,Rainwise IP-100,2013-03-10 05:35:00,
2013-03-10 00:40:00,25.6,24.0,30.39,ENE,67,4.0,5.6,91,0.00,,,0.00,Rainwise IP-100,2013-03-10 05:40:00,
2013-03-10 00:45:00,25.4,24.0,30.39,ESE,112,6.8,9.8,91,0.00,,,0.00,Rainwise IP-100,2013-03-10 05:45:00,
2013-03-10 00:50:00,25.3,24.0,30.39,East,90,3.7,10.5,91,0.00,,,0.00,Rainwise IP-100,2013-03-10 05:50:00,
2013-03-10 00:55:00,25.2,24.0,30.39,East,90,2.8,7.5,92,0.00,,,0.00,Rainwise IP-100,2013-03-10 05:55:00,
2013-03-10 01:00:00,25.2,24.0,30.39,ENE,67,3.7,7.7,92,0.00,,,0.00,Rainwise IP-100,2013-03-10 06:00:00,
2013-03-10 01:05:00,25.1,24.0,30.39,ENE,67,3.0,6.8,92,0.00,,,0.00,Rainwise IP-100,2013-03-10 06:05:00,
2013-03-10 01:10:00,25.1,24.0,30.39,ENE,67,0.0,7.5,92,0.00,,,0.00,Rainwise IP-100,2013-03-10 06:10:00,
2013-03-10 01:15:00,25.0,24.0,30.39,East,90,4.0,4.7,92,0.00,,,0.00,Rainwise IP-100,2013-03-10 06:15:00,
2013-03-10 01:20:00,25.0,24.0,30.40,NE,45,3.3,6.3,92,0.00,,,0.00,Rainwise IP-100,2013-03-10 06:20:00,
2013-03-10 01:25:00,25.0,24.0,30.39,ESE,112,5.6,5.6,92,0.00,,,0.00,Rainwise IP-100,2013-03-10 06:25:00,
2013-03-10 01:30:00,25.1,24.0,30.39,ESE,112,3.0,8.6,93,0.00,,,0.00,Rainwise IP-100,2013-03-10 06:30:00,
2013-03-10 01:35:00,25.2,24.0,30.39,East,90,1.9,9.8,92,0.00,,,0.00,Rainwise IP-100,2013-03-10 06:35:00,
2013-03-10 01:40:00,25.2,24.0,30.38,ENE,67,4.7,11.0,92,0.00,,,0.00,Rainwise IP-100,2013-03-10 06:40:00,
2013-03-10 01:45:00,25.2,24.0,30.38,ENE,67,3.5,8.4,92,0.00,,,0.00,Rainwise IP-100,2013-03-10 06:45:00,
2013-03-10 01:50:00,25.1,24.0,30.38,NNE,22,1.2,5.8,92,0.00,,,0.00,Rainwise IP-100,2013-03-10 06:50:00,
2013-03-10 01:55:00,25.1,24.0,30.38,East,90,10.3,10.3,93,0.00,,,0.00,Rainwise IP-100,2013-03-10 06:55:00,
2013-03-10 03:00:00,25.2,24.0,30.38,NNE,22,2.8,11.9,92,0.00,,,0.00,Rainwise IP-100,2013-03-10 07:00:00,
2013-03-10 03:05:00,25.2,24.0,30.38,NNW,337,1.4,8.2,92,0.00,,,0.00,Rainwise IP-100,2013-03-10 07:05:00,
2013-03-10 03:10:00,25.2,24.0,30.39,NE,45,1.2,6.8,92,0.00,,,0.00,Rainwise IP-100,2013-03-10 07:10:00,
2013-03-10 03:15:00,25.2,24.0,30.39,North,360,0.0,5.4,92,0.00,,,0.00,Rainwise IP-100,2013-03-10 07:15:00,
2013-03-10 03:20:00,25.2,24.0,30.38,ENE,67,2.6,4.9,92,0.00,,,0.00,Rainwise IP-100,2013-03-10 07:20:00,
2013-03-10 03:25:00,25.3,24.0,30.38,NNE,22,0.0,6.8,92,0.00,,,0.00,Rainwise IP-100,2013-03-10 07:25:00,
2013-03-10 03:30:00,25.4,24.0,30.38,ESE,112,1.6,5.6,92,0.00,,,0.00,Rainwise IP-100,2013-03-10 07:30:00,
2013-03-10 03:35:00,25.4,24.0,30.38,ENE,67,2.1,4.7,92,0.00,,,0.00,Rainwise IP-100,2013-03-10 07:35:00,
2013-03-10 03:40:00,25.4,24.0,30.38,SE,135,0.0,4.7,92,0.00,,,0.00,Rainwise IP-100,2013-03-10 07:40:00,
2013-03-10 03:45:00,25.4,24.0,30.38,ESE,112,5.1,5.4,92,0.00,,,0.00,Rainwise IP-100,2013-03-10 07:45:00,
2013-03-10 03:50:00,25.4,24.0,30.38,ENE,67,1.9,5.1,92,0.00,,,0.00,Rainwise IP-100,2013-03-10 07:50:00,
2013-03-10 03:55:00,25.4,24.0,30.37,ENE,67,10.3,10.3,92,0.00,,,0.00,Rainwise IP-100,2013-03-10 07:55:00,
2013-03-10 04:00:00,25.4,24.0,30.38,NNE,22,2.1,13.1,92,0.00,,,0.00,Rainwise IP-100,2013-03-10 08:00:00,
2013-03-10 04:04:00,25.4,24.0,30.38,ENE,67,0.0,4.9,92,0.00,,,0.00,Rainwise IP-100,2013-03-10 08:04:00,
2013-03-10 04:05:00,25.4,24.0,30.38,SSE,157,0.0,4.9,92,0.00,,,0.00,Rainwise IP-100,2013-03-10 08:05:00,
2013-03-10 04:09:00,25.5,24.0,30.37,ENE,67,5.6,5.6,92,0.00,,,0.00,Rainwise IP-100,2013-03-10 08:09:00,
2013-03-10 04:14:00,25.5,24.0,30.38,North,360,2.3,6.5,92,0.00,,,0.00,Rainwise IP-100,2013-03-10 08:14:00,
2013-03-10 04:19:00,25.5,24.0,30.37,ENE,67,2.1,6.1,92,0.00,,,0.00,Rainwise IP-100,2013-03-10 08:19:00,
2013-03-10 04:24:00,25.6,24.0,30.37,NE,45,4.0,4.2,92,0.00,,,0.00,Rainwise IP-100,2013-03-10 08:24:00,
2013-03-10 04:29:00,25.6,24.0,30.38,NNE,22,1.6,7.9,91,0.00,,,0.00,Rainwise IP-100,2013-03-10 08:29:00,
2013-03-10 04:34:00,25.6,24.0,30.37,ESE,112,2.3,9.8,91,0.00,,,0.00,Rainwise IP-100,2013-03-10 08:34:00,
2013-03-10 04:39:00,25.6,24.0,30.38,East,90,1.4,10.0,91,0.00,,,0.00,Rainwise IP-100,2013-03-10 08:39:00,
2013-03-10 04:44:00,25.6,24.0,30.38,ESE,112,5.1,9.3,91,0.00,,,0.00,Rainwise IP-100,2013-03-10 08:44:00,
2013-03-10 04:49:00,25.6,24.0,30.38,ESE,112,2.3,9.8,91,0.00,,,0.00,Rainwise IP-100,2013-03-10 08:49:00,
2013-03-10 04:54:00,25.7,24.0,30.39,ESE,112,2.3,7.9,91,0.00,,,0.00,Rainwise IP-100,2013-03-10 08:54:00,
2013-03-10 04:59:00,25.7,24.0,30.39,North,360,0.0,6.5,91,0.00,,,0.00,Rainwise IP-100,2013-03-10 08:59:00,
2013-03-10 05:04:00,25.7,24.0,30.39,SE,135,0.0,3.3,91,0.00,,,0.00,Rainwise IP-100,2013-03-10 09:04:00,
2013-03-10 05:09:00,25.7,24.0,30.40,NNE,22,1.4,3.5,91,0.00,,,0.00,Rainwise IP-100,2013-03-10 09:09:00,
2013-03-10 05:14:00,25.7,24.0,30.39,North,360,1.2,3.0,91,0.00,,,0.00,Rainwise IP-100,2013-03-10 09:14:00,
2013-03-10 05:19:00,25.7,24.0,30.40,North,360,0.0,6.8,90,0.00,,,0.00,Rainwise IP-100,2013-03-10 09:19:00,
2013-03-10 05:24:00,25.6,24.0,30.39,SE,135,0.0,7.7,90,0.00,,,0.00,Rainwise IP-100,2013-03-10 09:24:00,
2013-03-10 05:29:00,25.6,24.0,30.40,ESE,112,1.4,4.9,90,0.00,,,0.00,Rainwise IP-100,2013-03-10 09:29:00,
2013-03-10 05:34:00,25.6,24.0,30.39,ESE,112,1.2,5.1,90,0.00,,,0.00,Rainwise IP-100,2013-03-10 09:34:00,
2013-03-10 05:39:00,25.6,24.0,30.40,ESE,112,1.2,4.4,90,0.00,,,0.00,Rainwise IP-100,2013-03-10 09:39:00,
2013-03-10 05:44:00,25.6,24.0,30.40,ESE,112,1.2,3.5,90,0.00,,,0.00,Rainwise IP-100,2013-03-10 09:44:00,
2013-03-10 05:49:00,25.6,24.0,30.40,East,90,1.6,3.5,90,0.00,,,0.00,Rainwise IP-100,2013-03-10 09:49:00,
2013-03-10 05:54:00,25.6,24.0,30.39,East,90,0.0,3.5,90,0.00,,,0.00,Rainwise IP-100,2013-03-10 09:54:00,
2013-03-10 05:59:00,25.6,24.0,30.40,ESE,112,1.4,2.8,90,0.00,,,0.00,Rainwise IP-100,2013-03-10 09:59:00,
2013-03-10 06:04:00,25.6,24.0,30.39,ESE,112,1.4,6.5,90,0.00,,,0.00,Rainwise IP-100,2013-03-10 10:04:00,
2013-03-10 06:09:00,25.6,24.0,30.40,NNW,337,1.6,3.7,90,0.00,,,0.00,Rainwise IP-100,2013-03-10 10:09:00,
2013-03-10 06:14:00,25.6,24.0,30.40,NE,45,2.6,4.7,90,0.00,,,0.00,Rainwise IP-100,2013-03-10 10:14:00,
2013-03-10 06:19:00,25.6,24.0,30.40,East,90,0.0,4.9,90,0.00,,,0.00,Rainwise IP-100,2013-03-10 10:19:00,
2013-03-10 06:24:00,25.6,24.0,30.40,ESE,112,0.0,3.3,90,0.00,,,0.00,Rainwise IP-100,2013-03-10 10:24:00,
2013-03-10 06:29:00,25.6,24.0,30.40,NE,45,1.4,4.9,90,0.00,,,0.00,Rainwise IP-100,2013-03-10 10:29:00,
2013-03-10 06:34:00,25.5,24.0,30.40,ENE,67,0.0,3.7,90,0.00,,,0.00,Rainwise IP-100,2013-03-10 10:34:00,
2013-03-10 06:39:00,25.5,24.0,30.40,ESE,112,0.0,3.5,90,0.00,,,0.00,Rainwise IP-100,2013-03-10 10:39:00,
2013-03-10 06:44:00,25.5,24.0,30.41,NNE,22,1.4,4.4,90,0.00,,,0.00,Rainwise IP-100,2013-03-10 10:44:00,
2013-03-10 06:49:00,25.4,24.0,30.40,ESE,112,0.0,3.3,90,0.00,,,0.00,Rainwise IP-100,2013-03-10 10:49:00,
2013-03-10 06:54:00,25.4,24.0,30.40,ENE,67,2.3,5.6,90,0.00,,,0.00,Rainwise IP-100,2013-03-10 10:54:00,
2013-03-10 06:59:00,25.3,23.0,30.41,ESE,112,0.0,5.1,89,0.00,,,0.00,Rainwise IP-100,2013-03-10 10:59:00,
2013-03-10 07:04:00,25.2,23.0,30.40,ESE,112,0.0,2.6,89,0.00,,,0.00,Rainwise IP-100,2013-03-10 11:04:00,
2013-03-10 07:09:00,25.2,23.0,30.40,ESE,112,3.5,4.2,89,0.00,,,0.00,Rainwise IP-100,2013-03-10 11:09:00,
2013-03-10 07:14:00,25.2,24.0,30.41,ESE,112,3.0,7.9,90,0.00,,,0.00,Rainwise IP-100,2013-03-10 11:14:00,
2013-03-10 07:19:00,25.2,24.0,30.40,East,90,3.3,5.4,90,0.00,,,0.00,Rainwise IP-100,2013-03-10 11:19:00,
2013-03-10 07:24:00,25.2,24.0,30.40,ESE,112,2.6,8.6,90,0.00,,,0.00,Rainwise IP-100,2013-03-10 11:24:00,
2013-03-10 07:29:00,25.3,24.0,30.40,ENE,67,2.6,7.2,90,0.00,,,0.00,Rainwise IP-100,2013-03-10 11:29:00,
2013-03-10 07:34:00,25.4,24.0,30.40,East,90,0.0,8.6,90,0.00,,,0.00,Rainwise IP-100,2013-03-10 11:34:00,
2013-03-10 07:39:00,25.5,24.0,30.40,SE,135,2.8,6.1,90,0.00,,,0.00,Rainwise IP-100,2013-03-10 11:39:00,
2013-03-10 07:44:00,25.5,23.0,30.41,ESE,112,0.0,5.6,89,0.00,,,0.00,Rainwise IP-100,2013-03-10 11:44:00,
2013-03-10 07:49:00,25.5,23.0,30.41,ESE,112,2.6,4.2,89,0.00,,,0.00,Rainwise IP-100,2013-03-10 11:49:00,
2013-03-10 07:54:00,25.6,24.0,30.41,ESE,112,1.9,5.6,90,0.00,,,0.00,Rainwise IP-100,2013-03-10 11:54:00,
2013-03-10 07:59:00,25.6,23.0,30.41,East,90,2.3,7.0,89,0.00,,,0.00,Rainwise IP-100,2013-03-10 11:59:00,
2013-03-10 08:04:00,25.6,23.0,30.41,SE,135,2.8,7.7,89,0.00,,,0.00,Rainwise IP-100,2013-03-10 12:04:00,
2013-03-10 08:09:00,25.6,23.0,30.41,ESE,112,3.0,6.5,89,0.00,,,0.00,Rainwise IP-100,2013-03-10 12:09:00,
2013-03-10 08:14:00,25.5,23.0,30.41,ESE,112,3.3,5.6,89,0.00,,,0.00,Rainwise IP-100,2013-03-10 12:14:00,
2013-03-10 08:19:00,25.5,23.0,30.41,SSE,157,3.0,5.6,89,0.00,,,0.00,Rainwise IP-100,2013-03-10 12:19:00,
2013-03-10 08:24:00,25.5,23.0,30.42,ESE,112,2.6,4.9,89,0.00,,,0.00,Rainwise IP-100,2013-03-10 12:24:00,
2013-03-10 08:29:00,25.7,23.0,30.42,East,90,1.4,4.7,89,0.00,,,0.00,Rainwise IP-100,2013-03-10 12:29:00,
2013-03-10 08:34:00,25.9,23.0,30.42,ESE,112,0.0,3.5,89,0.00,,,0.00,Rainwise IP-100,2013-03-10 12:34:00,
2013-03-10 08:39:00,26.0,23.0,30.42,SSE,157,0.0,1.9,89,0.00,,,0.00,Rainwise IP-100,2013-03-10 12:39:00,
2013-03-10 08:44:00,26.1,23.0,30.43,WSW,247,0.0,1.6,88,0.00,,,0.00,Rainwise IP-100,2013-03-10 12:44:00,
2013-03-10 08:49:00,26.1,23.0,30.42,WSW,247,1.9,4.2,88,0.00,,,0.00,Rainwise IP-100,2013-03-10 12:49:00,
2013-03-10 08:54:00,26.2,23.0,30.42,NNW,337,0.0,5.1,88,0.00,,,0.00,Rainwise IP-100,2013-03-10 12:54:00,
2013-03-10 08:59:00,26.4,23.0,30.43,ESE,112,0.0,1.6,88,0.00,,,0.00,Rainwise IP-100,2013-03-10 12:59:00,
2013-03-10 09:04:00,26.4,23.0,30.42,South,180,0.0,4.4,88,0.00,,,0.00,Rainwise IP-100,2013-03-10 13:04:00,
2013-03-10 09:09:00,26.3,23.0,30.42,ESE,112,4.7,6.3,88,0.00,,,0.00,Rainwise IP-100,2013-03-10 13:09:00,
2013-03-10 09:14:00,26.4,23.0,30.42,SE,135,2.1,5.6,88,0.00,,,0.00,Rainwise IP-100,2013-03-10 13:14:00,
2013-03-10 09:19:00,26.7,24.0,30.42,ESE,112,0.0,7.7,87,0.00,,,0.00,Rainwise IP-100,2013-03-10 13:19:00,
2013-03-10 09:24:00,27.0,24.0,30.42,West,270,3.5,4.0,87,0.00,,,0.00,Rainwise IP-100,2013-03-10 13:24:00,
2013-03-10 09:29:00,27.1,24.0,30.42,WSW,247,0.0,5.4,86,0.00,,,0.00,Rainwise IP-100,2013-03-10 13:29:00,
2013-03-10 09:34:00,27.3,24.0,30.42,ENE,67,0.0,2.3,85,0.00,,,0.00,Rainwise IP-100,2013-03-10 13:34:00,
2013-03-10 09:39:00,27.4,24.0,30.43,NE,45,0.0,4.9,85,0.00,,,0.00,Rainwise IP-100,2013-03-10 13:39:00,
2013-03-10 09:44:00,27.4,24.0,30.42,ENE,67,2.3,4.2,85,0.00,,,0.00,Rainwise IP-100,2013-03-10 13:44:00,
2013-03-10 09:50:00,27.5,24.0,30.43,SSW,202,1.2,4.0,84,0.00,,,0.00,Rainwise IP-100,2013-03-10 13:50:00,
2013-03-10 09:55:00,27.6,24.0,30.42,East,90,2.6,5.8,84,0.00,,,0.00,Rainwise IP-100,2013-03-10 13:55:00,
2013-03-10 10:00:00,27.5,24.0,30.42,ESE,112,2.3,7.7,84,0.00,,,0.00,Rainwise IP-100,2013-03-10 14:00:00,
2013-03-10 10:05:00,27.3,24.0,30.42,SSE,157,2.1,4.9,84,0.00,,,0.00,Rainwise IP-100,2013-03-10 14:05:00,
2013-03-10 10:10:00,27.5,24.0,30.42,ESE,112,4.2,4.2,84,0.00,,,0.00,Rainwise IP-100,2013-03-10 14:10:00,
2013-03-10 10:15:00,27.9,23.0,30.42,SW,225,2.1,4.9,83,0.00,,,0.00,Rainwise IP-100,2013-03-10 14:15:00,
2013-03-10 10:20:00,28.2,23.0,30.42,ESE,112,4.0,5.1,83,0.00,,,0.00,Rainwise IP-100,2013-03-10 14:20:00,
2013-03-10 10:25:00,28.4,23.0,30.42,ESE,112,4.0,6.8,82,0.00,,,0.00,Rainwise IP-100,2013-03-10 14:25:00,
2013-03-10 10:30:00,28.5,24.0,30.42,SSE,157,2.3,5.8,82,0.00,,,0.00,Rainwise IP-100,2013-03-10 14:30:00,
2013-03-10 10:35:00,28.7,24.0,30.42,SSE,157,3.7,8.4,81,0.00,,,0.00,Rainwise IP-100,2013-03-10 14:35:00,
2013-03-10 10:40:00,28.5,24.0,30.42,ESE,112,4.7,7.0,80,0.00,,,0.00,Rainwise IP-100,2013-03-10 14:40:00,
2013-03-10 10:45:00,28.7,24.0,30.42,ESE,112,4.7,8.9,80,0.00,,,0.00,Rainwise IP-100,2013-03-10 14:45:00,
2013-03-10 10:50:00,29.6,26.0,30.42,NNE,22,0.0,5.6,80,0.00,,,0.00,Rainwise IP-100,2013-03-10 14:50:00,
2013-03-10 10:55:00,30.5,24.0,30.42,SSE,157,2.1,6.3,78,0.00,,,0.00,Rainwise IP-100,2013-03-10 14:55:00,
2013-03-10 11:00:00,30.9,24.0,30.43,ESE,112,2.6,3.5,77,0.00,,,0.00,Rainwise IP-100,2013-03-10 15:00:00,
2013-03-10 11:05:00,31.3,24.0,30.43,South,180,0.0,5.4,76,0.00,,,0.00,Rainwise IP-100,2013-03-10 15:05:00,
2013-03-10 11:10:00,31.6,26.0,30.42,SW,225,2.1,7.2,75,0.00,,,0.00,Rainwise IP-100,2013-03-10 15:10:00,
2013-03-10 11:15:00,31.6,26.0,30.42,SSE,157,3.3,6.5,75,0.00,,,0.00,Rainwise IP-100,2013-03-10 15:15:00,
2013-03-10 11:20:00,31.6,24.0,30.43,SSE,157,3.3,4.4,74,0.00,,,0.00,Rainwise IP-100,2013-03-10 15:20:00,
2013-03-10 11:25:00,31.4,24.0,30.42,SSW,202,0.0,6.5,74,0.00,,,0.00,Rainwise IP-100,2013-03-10 15:25:00,
2013-03-10 11:30:00,31.6,24.0,30.43,SSE,157,0.0,4.7,74,0.00,,,0.00,Rainwise IP-100,2013-03-10 15:30:00,
2013-03-10 11:35:00,32.2,24.0,30.42,NW,315,2.8,4.2,74,0.00,,,0.00,Rainwise IP-100,2013-03-10 15:35:00,
2013-03-10 11:40:00,32.5,26.0,30.42,SE,135,1.2,5.4,73,0.00,,,0.00,Rainwise IP-100,2013-03-10 15:40:00,
2013-03-10 11:45:00,32.7,26.0,30.42,SSW,202,4.7,12.1,72,0.00,,,0.00,Rainwise IP-100,2013-03-10 15:45:00,
2013-03-10 11:50:00,33.1,24.0,30.42,WSW,247,3.0,13.1,71,0.00,,,0.00,Rainwise IP-100,2013-03-10 15:50:00,
2013-03-10 11:55:00,33.6,26.0,30.42,SSE,157,3.0,5.8,70,0.00,,,0.00,Rainwise IP-100,2013-03-10 15:55:00,
2013-03-10 12:00:00,33.7,26.0,30.42,South,180,4.2,6.3,69,0.00,,,0.00,Rainwise IP-100,2013-03-10 16:00:00,
2013-03-10 12:05:00,33.4,24.0,30.42,SSE,157,2.6,4.4,69,0.00,,,0.00,Rainwise IP-100,2013-03-10 16:05:00,
2013-03-10 12:10:00,32.9,24.0,30.42,SSE,157,2.6,4.4,70,0.00,,,0.00,Rainwise IP-100,2013-03-10 16:10:00,
2013-03-10 12:15:00,32.5,24.0,30.42,SSW,202,4.2,4.4,70,0.00,,,0.00,Rainwise IP-100,2013-03-10 16:15:00,
2013-03-10 12:20:00,32.7,24.0,30.41,SSW,202,2.8,5.8,70,0.00,,,0.00,Rainwise IP-100,2013-03-10 16:20:00,
2013-03-10 12:25:00,33.4,24.0,30.41,SSE,157,2.1,4.2,70,0.00,,,0.00,Rainwise IP-100,2013-03-10 16:25:00,
2013-03-10 12:30:00,33.9,26.0,30.41,ESE,112,3.3,5.8,69,0.00,,,0.00,Rainwise IP-100,2013-03-10 16:30:00,
2013-03-10 12:35:00,34.4,26.0,30.41,SW,225,3.7,5.1,68,0.00,,,0.00,Rainwise IP-100,2013-03-10 16:35:00,
2013-03-10 12:40:00,35.2,24.0,30.41,ESE,112,0.0,4.9,67,0.00,,,0.00,Rainwise IP-100,2013-03-10 16:40:00,
2013-03-10 12:45:00,35.9,26.0,30.41,WSW,247,2.6,7.2,65,0.00,,,0.00,Rainwise IP-100,2013-03-10 16:45:00,
2013-03-10 12:50:00,36.1,24.0,30.41,WSW,247,1.6,4.0,64,0.00,,,0.00,Rainwise IP-100,2013-03-10 16:50:00,
2013-03-10 12:55:00,35.7,24.0,30.40,ESE,112,0.0,4.7,64,0.00,,,0.00,Rainwise IP-100,2013-03-10 16:55:00,
2013-03-10 13:00:00,35.4,24.0,30.41,WNW,292,0.0,4.7,64,0.00,,,0.00,Rainwise IP-100,2013-03-10 17:00:00,
2013-03-10 13:05:00,35.8,24.0,30.40,WNW,292,0.0,4.2,64,0.00,,,0.00,Rainwise IP-100,2013-03-10 17:05:00,
2013-03-10 13:10:00,36.9,26.0,30.40,WNW,292,2.1,3.3,63,0.00,,,0.00,Rainwise IP-100,2013-03-10 17:10:00,
2013-03-10 13:15:00,37.5,26.0,30.40,ESE,112,1.2,3.5,61,0.00,,,0.00,Rainwise IP-100,2013-03-10 17:15:00,
2013-03-10 13:20:00,37.3,24.0,30.40,SSE,157,0.0,3.7,60,0.00,,,0.00,Rainwise IP-100,2013-03-10 17:20:00,
2013-03-10 13:25:00,37.6,26.0,30.40,ESE,112,2.3,5.1,60,0.00,,,0.00,Rainwise IP-100,2013-03-10 17:25:00,
2013-03-10 13:30:00,38.1,26.0,30.40,SE,135,4.0,5.4,59,0.00,,,0.00,Rainwise IP-100,2013-03-10 17:30:00,
2013-03-10 13:35:00,37.6,26.0,30.40,SSE,157,5.1,6.5,60,0.00,,,0.00,Rainwise IP-100,2013-03-10 17:35:00,
2013-03-10 13:40:00,37.7,26.0,30.39,ESE,112,4.7,5.8,60,0.00,,,0.00,Rainwise IP-100,2013-03-10 17:40:00,
2013-03-10 13:45:00,37.4,24.0,30.39,South,180,1.6,6.1,60,0.00,,,0.00,Rainwise IP-100,2013-03-10 17:45:00,
2013-03-10 13:50:00,37.3,24.0,30.39,SSE,157,1.2,7.0,60,0.00,,,0.00,Rainwise IP-100,2013-03-10 17:50:00,
2013-03-10 13:55:00,37.8,26.0,30.39,SSW,202,2.6,5.1,60,0.00,,,0.00,Rainwise IP-100,2013-03-10 17:55:00,
2013-03-10 14:00:00,37.6,26.0,30.38,WSW,247,4.2,5.6,60,0.00,,,0.00,Rainwise IP-100,2013-03-10 18:00:00,
2013-03-10 14:05:00,38.0,26.0,30.38,South,180,3.0,5.8,60,0.00,,,0.00,Rainwise IP-100,2013-03-10 18:05:00,
2013-03-10 14:10:00,38.3,26.0,30.38,SSW,202,4.0,6.3,59,0.00,,,0.00,Rainwise IP-100,2013-03-10 18:10:00,
2013-03-10 14:15:00,38.1,26.0,30.38,ESE,112,4.2,7.7,59,0.00,,,0.00,Rainwise IP-100,2013-03-10 18:15:00,
2013-03-10 14:20:00,37.3,24.0,30.38,SE,135,5.8,7.7,60,0.00,,,0.00,Rainwise IP-100,2013-03-10 18:20:00,
2013-03-10 14:25:00,36.5,24.0,30.38,ESE,112,3.5,6.5,61,0.00,,,0.00,Rainwise IP-100,2013-03-10 18:25:00,
2013-03-10 14:30:00,36.7,24.0,30.38,SSW,202,4.0,6.1,61,0.00,,,0.00,Rainwise IP-100,2013-03-10 18:30:00,
2013-03-10 14:35:00,37.3,24.0,30.37,ESE,112,4.2,7.0,60,0.00,,,0.00,Rainwise IP-100,2013-03-10 18:35:00,
2013-03-10 14:40:00,37.5,26.0,30.37,ESE,112,2.3,7.0,60,0.00,,,0.00,Rainwise IP-100,2013-03-10 18:40:00,
2013-03-10 14:45:00,37.8,26.0,30.37,SSW,202,3.5,4.2,60,0.00,,,0.00,Rainwise IP-100,2013-03-10 18:45:00,
2013-03-10 14:50:00,38.1,26.0,30.37,SSE,157,4.4,6.8,60,0.00,,,0.00,Rainwise IP-100,2013-03-10 18:50:00,
2013-03-10 14:55:00,38.1,26.0,30.37,SW,225,3.7,7.5,60,0.00,,,0.00,Rainwise IP-100,2013-03-10 18:55:00,
2013-03-10 15:00:00,37.7,26.0,30.37,SSE,157,4.0,6.5,60,0.00,,,0.00,Rainwise IP-100,2013-03-10 19:00:00,
2013-03-10 15:05:00,37.2,24.0,30.37,ESE,112,3.5,6.8,61,0.00,,,0.00,Rainwise IP-100,2013-03-10 19:05:00,
2013-03-10 15:10:00,37.1,24.0,30.36,East,90,4.2,6.3,61,0.00,,,0.00,Rainwise IP-100,2013-03-10 19:10:00,
2013-03-10 15:15:00,37.2,26.0,30.36,ESE,112,5.1,7.2,62,0.00,,,0.00,Rainwise IP-100,2013-03-10 19:15:00,
2013-03-10 15:20:00,36.7,26.0,30.36,ESE,112,2.6,9.1,62,0.00,,,0.00,Rainwise IP-100,2013-03-10 19:20:00,
2013-03-10 15:25:00,36.6,26.0,30.36,SSE,157,5.1,8.9,62,0.00,,,0.00,Rainwise IP-100,2013-03-10 19:25:00,
2013-03-10 15:30:00,37.3,24.0,30.36,SSE,157,5.1,9.1,61,0.00,,,0.00,Rainwise IP-100,2013-03-10 19:30:00,
2013-03-10 15:35:00,37.4,24.0,30.36,South,180,6.1,6.3,61,0.00,,,0.00,Rainwise IP-100,2013-03-10 19:35:00,
2013-03-10 15:40:00,37.7,26.0,30.36,SSW,202,4.0,8.6,60,0.00,,,0.00,Rainwise IP-100,2013-03-10 19:40:00,
2013-03-10 15:45:00,37.9,26.0,30.36,SSE,157,0.0,7.9,60,0.00,,,0.00,Rainwise IP-100,2013-03-10 19:45:00,
2013-03-10 15:50:00,37.7,26.0,30.36,SSE,157,4.2,6.8,60,0.00,,,0.00,Rainwise IP-100,2013-03-10 19:50:00,
2013-03-10 15:55:00,37.8,26.0,30.36,SSE,157,6.1,6.5,61,0.00,,,0.00,Rainwise IP-100,2013-03-10 19:55:00,
2013-03-10 16:00:00,38.3,26.0,30.36,South,180,3.3,9.1,60,0.00,,,0.00,Rainwise IP-100,2013-03-10 20:00:00,
2013-03-10 16:05:00,38.5,26.0,30.36,SSE,157,4.7,8.2,59,0.00,,,0.00,Rainwise IP-100,2013-03-10 20:05:00,
2013-03-10 16:10:00,37.6,26.0,30.36,ESE,112,5.6,8.2,60,0.00,,,0.00,Rainwise IP-100,2013-03-10 20:10:00,
2013-03-10 16:15:00,37.2,24.0,30.36,SSW,202,3.7,6.1,61,0.00,,,0.00,Rainwise IP-100,2013-03-10 20:15:00,
2013-03-10 16:21:00,38.0,26.0,30.36,SSW,202,2.8,11.4,61,0.00,,,0.00,Rainwise IP-100,2013-03-10 20:21:00,
2013-03-10 16:26:00,38.2,26.0,30.36,South,180,5.4,8.2,60,0.00,,,0.00,Rainwise IP-100,2013-03-10 20:26:00,
2013-03-10 16:31:00,38.0,26.0,30.36,SE,135,5.8,7.9,61,0.00,,,0.00,Rainwise IP-100,2013-03-10 20:31:00,
2013-03-10 16:36:00,37.8,26.0,30.36,SSE,157,2.3,8.2,61,0.00,,,0.00,Rainwise IP-100,2013-03-10 20:36:00,
2013-03-10 16:41:00,37.8,26.0,30.36,South,180,3.7,6.1,61,0.00,,,0.00,Rainwise IP-100,2013-03-10 20:41:00,
2013-03-10 16:46:00,37.8,26.0,30.36,SW,225,3.7,7.9,61,0.00,,,0.00,Rainwise IP-100,2013-03-10 20:46:00,
2013-03-10 16:51:00,37.7,26.0,30.36,South,180,6.1,6.1,62,0.00,,,0.00,Rainwise IP-100,2013-03-10 20:51:00,
2013-03-10 16:56:00,36.9,26.0,30.36,SE,135,2.3,7.2,62,0.00,,,0.00,Rainwise IP-100,2013-03-10 20:56:00,
2013-03-10 17:01:00,36.3,24.0,30.36,SW,225,3.5,6.5,64,0.00,,,0.00,Rainwise IP-100,2013-03-10 21:01:00,
2013-03-10 17:06:00,36.8,26.0,30.36,SSW,202,6.5,10.3,64,0.00,,,0.00,Rainwise IP-100,2013-03-10 21:06:00,
2013-03-10 17:11:00,36.8,26.0,30.35,SE,135,5.6,10.7,64,0.00,,,0.00,Rainwise IP-100,2013-03-10 21:11:00,
2013-03-10 17:16:00,36.0,26.0,30.35,SE,135,4.0,7.0,65,0.00,,,0.00,Rainwise IP-100,2013-03-10 21:16:00,
2013-03-10 17:21:00,35.4,24.0,30.35,SSE,157,4.0,8.2,66,0.00,,,0.00,Rainwise IP-100,2013-03-10 21:21:00,
2013-03-10 17:26:00,35.4,24.0,30.35,SSE,157,4.0,8.9,66,0.00,,,0.00,Rainwise IP-100,2013-03-10 21:26:00,
2013-03-10 17:31:00,35.6,26.0,30.35,SSW,202,4.0,8.2,66,0.00,,,0.00,Rainwise IP-100,2013-03-10 21:31:00,
2013-03-10 17:36:00,35.5,26.0,30.36,WSW,247,3.3,8.2,66,0.00,,,0.00,Rainwise IP-100,2013-03-10 21:36:00,
2013-03-10 17:41:00,35.1,24.0,30.36,West,270,6.5,8.4,67,0.00,,,0.00,Rainwise IP-100,2013-03-10 21:41:00,
2013-03-10 17:46:00,34.6,26.0,30.35,South,180,2.3,8.6,69,0.00,,,0.00,Rainwise IP-100,2013-03-10 21:46:00,
2013-03-10 17:51:00,34.3,26.0,30.36,SSE,157,4.0,5.8,70,0.00,,,0.00,Rainwise IP-100,2013-03-10 21:51:00,
2013-03-10 17:56:00,33.9,26.0,30.35,South,180,4.7,7.5,71,0.00,,,0.00,Rainwise IP-100,2013-03-10 21:56:00,
2013-03-10 18:01:00,33.5,26.0,30.36,SSE,157,3.5,10.7,72,0.00,,,0.00,Rainwise IP-100,2013-03-10 22:01:00,
2013-03-10 18:06:00,33.1,26.0,30.36,SSE,157,2.6,6.3,73,0.00,,,0.00,Rainwise IP-100,2013-03-10 22:06:00,
2013-03-10 18:11:00,32.6,26.0,30.36,South,180,2.8,6.1,74,0.00,,,0.00,Rainwise IP-100,2013-03-10 22:11:00,
2013-03-10 18:16:00,32.2,26.0,30.35,SSE,157,3.5,6.5,75,0.00,,,0.00,Rainwise IP-100,2013-03-10 22:16:00,
2013-03-10 18:21:00,31.9,26.0,30.35,South,180,3.3,7.5,76,0.00,,,0.00,Rainwise IP-100,2013-03-10 22:21:00,
2013-03-10 18:26:00,31.7,26.0,30.35,SSE,157,4.9,9.1,77,0.00,,,0.00,Rainwise IP-100,2013-03-10 22:26:00,
2013-03-10 18:31:00,31.3,24.0,30.35,SSE,157,4.4,6.1,78,0.00,,,0.00,Rainwise IP-100,2013-03-10 22:31:00,
2013-03-10 18:36:00,31.0,24.0,30.35,SSE,157,1.9,7.2,79,0.00,,,0.00,Rainwise IP-100,2013-03-10 22:36:00,
2013-03-10 18:41:00,30.7,26.0,30.35,SSE,157,2.1,5.8,80,0.00,,,0.00,Rainwise IP-100,2013-03-10 22:41:00,
2013-03-10 18:46:00,30.4,26.0,30.35,SSE,157,3.0,8.9,81,0.00,,,0.00,Rainwise IP-100,2013-03-10 22:46:00,
2013-03-10 18:51:00,30.2,26.0,30.35,SSE,157,6.3,6.3,82,0.00,,,0.00,Rainwise IP-100,2013-03-10 22:51:00,
2013-03-10 18:56:00,30.0,26.0,30.36,SSE,157,3.0,6.8,83,0.00,,,0.00,Rainwise IP-100,2013-03-10 22:56:00,
2013-03-10 19:01:00,29.8,26.0,30.36,South,180,3.5,10.7,84,0.00,,,0.00,Rainwise IP-100,2013-03-10 23:01:00,
2013-03-10 19:07:00,29.7,26.0,30.36,SSE,157,4.2,7.9,85,0.00,,,0.00,Rainwise IP-100,2013-03-10 23:07:00,
2013-03-10 19:12:00,29.7,26.0,30.36,SSW,202,2.8,6.8,85,0.00,,,0.00,Rainwise IP-100,2013-03-10 23:12:00,
2013-03-10 19:17:00,29.7,28.0,30.36,South,180,4.2,6.3,86,0.00,,,0.00,Rainwise IP-100,2013-03-10 23:17:00,
2013-03-10 19:22:00,29.6,28.0,30.36,SSW,202,2.6,7.0,86,0.00,,,0.00,Rainwise IP-100,2013-03-10 23:22:00,
2013-03-10 19:27:00,29.5,28.0,30.35,SW,225,1.9,4.7,87,0.00,,,0.00,Rainwise IP-100,2013-03-10 23:27:00,
2013-03-10 19:32:00,29.4,26.0,30.35,South,180,3.7,7.0,87,0.00,,,0.00,Rainwise IP-100,2013-03-10 23:32:00,
2013-03-10 19:37:00,29.3,26.0,30.35,SSE,157,4.2,7.0,88,0.00,,,0.00,Rainwise IP-100,2013-03-10 23:37:00,
2013-03-10 19:42:00,29.2,26.0,30.34,SSE,157,3.7,7.7,88,0.00,,,0.00,Rainwise IP-100,2013-03-10 23:42:00,
2013-03-10 19:47:00,29.1,26.0,30.34,South,180,4.9,8.2,89,0.00,,,0.00,Rainwise IP-100,2013-03-10 23:47:00,
2013-03-10 19:52:00,29.0,26.0,30.34,SSW,202,1.9,7.0,89,0.00,,,0.00,Rainwise IP-100,2013-03-10 23:52:00,
2013-03-10 19:57:00,28.9,26.0,30.34,West,270,3.7,5.4,90,0.00,,,0.00,Rainwise IP-100,2013-03-10 23:57:00,
2013-03-10 20:02:00,28.9,26.0,30.35,South,180,4.9,4.9,90,0.00,,,0.00,Rainwise IP-100,2013-03-11 00:02:00,
2013-03-10 20:07:00,28.8,26.0,30.34,SSW,202,1.9,6.8,90,0.00,,,0.00,Rainwise IP-100,2013-03-11 00:07:00,
2013-03-10 20:12:00,28.7,26.0,30.34,SSW,202,4.9,7.7,90,0.00,,,0.00,Rainwise IP-100,2013-03-11 00:12:00,
2013-03-10 20:17:00,28.5,28.0,30.34,SSW,202,2.6,6.1,91,0.00,,,0.00,Rainwise IP-100,2013-03-11 00:17:00,
2013-03-10 20:22:00,28.5,28.0,30.34,SSW,202,3.5,6.8,91,0.00,,,0.00,Rainwise IP-100,2013-03-11 00:22:00,
2013-03-10 20:27:00,28.4,26.0,30.34,South,180,5.1,7.7,92,0.00,,,0.00,Rainwise IP-100,2013-03-11 00:27:00,
2013-03-10 20:32:00,28.5,28.0,30.33,South,180,4.7,8.6,92,0.00,,,0.00,Rainwise IP-100,2013-03-11 00:32:00,
2013-03-10 20:37:00,28.4,26.0,30.33,South,180,3.5,6.8,92,0.00,,,0.00,Rainwise IP-100,2013-03-11 00:37:00,
2013-03-10 20:42:00,28.4,26.0,30.34,SSW,202,6.5,7.5,92,0.00,,,0.00,Rainwise IP-100,2013-03-11 00:42:00,
2013-03-10 20:47:00,28.4,26.0,30.34,WSW,247,1.9,7.7,92,0.00,,,0.00,Rainwise IP-100,2013-03-11 00:47:00,
2013-03-10 20:52:00,28.3,26.0,30.34,SSE,157,1.9,6.1,92,0.00,,,0.00,Rainwise IP-100,2013-03-11 00:52:00,
2013-03-10 20:57:00,28.3,26.0,30.34,South,180,1.6,4.4,92,0.00,,,0.00,Rainwise IP-100,2013-03-11 00:57:00,
2013-03-10 21:02:00,28.3,26.0,30.34,SW,225,2.1,4.9,93,0.00,,,0.00,Rainwise IP-100,2013-03-11 01:02:00,
2013-03-10 21:07:00,28.3,26.0,30.34,South,180,4.4,5.4,93,0.00,,,0.00,Rainwise IP-100,2013-03-11 01:07:00,
2013-03-10 21:12:00,28.4,26.0,30.34,SSW,202,1.4,4.9,93,0.00,,,0.00,Rainwise IP-100,2013-03-11 01:12:00,
2013-03-10 21:17:00,28.4,26.0,30.35,SW,225,1.4,3.7,93,0.00,,,0.00,Rainwise IP-100,2013-03-11 01:17:00,
2013-03-10 21:22:00,28.4,26.0,30.35,SSE,157,3.5,3.5,93,0.00,,,0.00,Rainwise IP-100,2013-03-11 01:22:00,
2013-03-10 21:27:00,28.3,26.0,30.34,SSE,157,1.2,5.8,93,0.00,,,0.00,Rainwise IP-100,2013-03-11 01:27:00,
2013-03-10 21:32:00,28.3,26.0,30.34,South,180,3.0,5.4,93,0.00,,,0.00,Rainwise IP-100,2013-03-11 01:32:00,
2013-03-10 21:37:00,28.3,26.0,30.34,SSW,202,4.0,6.5,94,0.00,,,0.00,Rainwise IP-100,2013-03-11 01:37:00,
2013-03-10 21:42:00,28.4,26.0,30.35,SSW,202,1.6,6.3,94,0.00,,,0.00,Rainwise IP-100,2013-03-11 01:42:00,
2013-03-10 21:47:00,28.5,28.0,30.34,SSW,202,2.8,5.6,94,0.00,,,0.00,Rainwise IP-100,2013-03-11 01:47:00,
2013-03-10 21:52:00,28.5,28.0,30.34,SW,225,3.3,6.8,94,0.00,,,0.00,Rainwise IP-100,2013-03-11 01:52:00,
2013-03-10 21:57:00,28.5,28.0,30.34,SW,225,3.7,6.8,94,0.00,,,0.00,Rainwise IP-100,2013-03-11 01:57:00,
2013-03-10 22:02:00,28.6,28.0,30.34,SW,225,3.7,9.1,94,0.00,,,0.00,Rainwise IP-100,2013-03-11 02:02:00,
2013-03-10 22:07:00,28.7,28.0,30.34,WSW,247,2.8,13.3,94,0.00,,,0.00,Rainwise IP-100,2013-03-11 02:07:00,
2013-03-10 22:12:00,28.8,28.0,30.34,SSW,202,12.4,12.4,93,0.00,,,0.00,Rainwise IP-100,2013-03-11 02:12:00,
2013-03-10 22:17:00,28.9,28.0,30.34,SSW,202,3.5,13.1,93,0.00,,,0.00,Rainwise IP-100,2013-03-11 02:17:00,
2013-03-10 22:22:00,29.0,28.0,30.33,SSW,202,10.0,13.8,93,0.00,,,0.00,Rainwise IP-100,2013-03-11 02:22:00,
2013-03-10 22:27:00,29.0,28.0,30.33,SSW,202,5.1,12.6,93,0.00,,,0.00,Rainwise IP-100,2013-03-11 02:27:00,
2013-03-10 22:32:00,29.1,28.0,30.33,South,180,8.9,10.7,93,0.00,,,0.00,Rainwise IP-100,2013-03-11 02:32:00,
2013-03-10 22:37:00,29.2,28.0,30.33,SSW,202,5.8,11.2,93,0.00,,,0.00,Rainwise IP-100,2013-03-11 02:37:00,
2013-03-10 22:42:00,29.2,28.0,30.32,SSW,202,2.1,9.3,93,0.00,,,0.00,Rainwise IP-100,2013-03-11 02:42:00,
2013-03-10 22:47:00,29.2,28.0,30.31,South,180,3.0,8.2,93,0.00,,,0.00,Rainwise IP-100,2013-03-11 02:47:00,
2013-03-10 22:52:00,29.2,28.0,30.30,SSE,157,8.4,9.1,93,0.00,,,0.00,Rainwise IP-100,2013-03-11 02:52:00,
2013-03-10 22:57:00,29.2,28.0,30.31,South,180,5.8,10.0,93,0.00,,,0.00,Rainwise IP-100,2013-03-11 02:57:00,
2013-03-10 23:02:00,29.2,28.0,30.31,SW,225,4.2,8.6,93,0.00,,,0.00,Rainwise IP-100,2013-03-11 03:02:00,
2013-03-10 23:07:00,29.3,28.0,30.32,SSW,202,3.0,12.4,93,0.00,,,0.00,Rainwise IP-100,2013-03-11 03:07:00,
2013-03-10 23:12:00,29.4,28.0,30.32,WSW,247,1.6,10.0,93,0.00,,,0.00,Rainwise IP-100,2013-03-11 03:12:00,
2013-03-10 23:17:00,29.5,29.0,30.32,SW,225,2.3,7.2,93,0.00,,,0.00,Rainwise IP-100,2013-03-11 03:17:00,
2013-03-10 23:22:00,29.6,29.0,30.32,SSW,202,3.5,7.9,93,0.00,,,0.00,Rainwise IP-100,2013-03-11 03:22:00,
2013-03-10 23:27:00,29.6,29.0,30.31,SSW,202,2.1,11.0,93,0.00,,,0.00,Rainwise IP-100,2013-03-11 03:27:00,
2013-03-10 23:32:00,29.7,29.0,30.31,SW,225,10.3,10.3,93,0.00,,,0.00,Rainwise IP-100,2013-03-11 03:32:00,
2013-03-10 23:37:00,29.7,29.0,30.31,WSW,247,4.9,10.3,93,0.00,,,0.00,Rainwise IP-100,2013-03-11 03:37:00,
2013-03-10 23:42:00,29.8,29.0,30.32,SSW,202,8.9,8.9,93,0.00,,,0.00,Rainwise IP-100,2013-03-11 03:42:00,
2013-03-10 23:47:00,29.9,29.0,30.32,South,180,3.0,8.9,93,0.00,,,0.00,Rainwise IP-100,2013-03-11 03:47:00,
2013-03-10 23:52:00,30.0,29.0,30.32,South,180,4.4,9.1,93,0.00,,,0.00,Rainwise IP-100,2013-03-11 03:52:00,
2013-03-10 23:57:00,30.1,29.0,30.32,SSW,202,3.5,7.7,93,0.00,,,0.00,Rainwise IP-100,2013-03-11 03:57:00,